Pont Aven — FNPN — position and weather

sailwx.info

Track history (hours):
 
Tides and Currents Weather Stations Pressure Air Temp Water Temp Dewpoint Dewpoint Depression Visibility Wind Speed Wind Dir Waves Ship Positions

Pont Aven

Last reported at 2017-Aug-23 08:54 UTC. Time now 2017-Aug-23 13:39 UTC.
Position N 46°08' W 004°34'.

Length 185 m; beam 31 m.

Type: Passenger vessel. MMSI: 228183600.

Date/timePositionNaut miles runAvg speedWind from/ knotsBaromVisibWave heightAir tempDewpointWater temp
2017-Aug-23 08:54N 46°08' W 004°34'1624.4
2017-Aug-23 08:14N 46°24' W 004°40'1223.6
2017-Aug-23 07:44N 46°35' W 004°44'623.9
2017-Aug-23 07:29N 46°41' W 004°45'2024.5
2017-Aug-23 06:40N 47°01' W 004°50'424.6
2017-Aug-23 06:31N 47°05' W 004°52'2524.6
2017-Aug-23 05:31N 47°29' W 004°58'024.1
2017-Aug-23 05:30N 47°29' W 004°58'1224.1
2017-Aug-23 05:00N 47°41' W 005°03'1223.6
2017-Aug-23 04:29N 47°53' W 005°07'1322.4
2017-Aug-23 03:54N 48°06' W 005°10'921.6
2017-Aug-23 03:29N 48°15' W 005°10'1021.0
2017-Aug-23 03:00N 48°24' W 005°05'816.4
2017-Aug-23 02:30N 48°30' W 004°57'1121.3
2017-Aug-23 02:00N 48°39' W 004°47'1122.4
2017-Aug-23 01:31N 48°47' W 004°36'1323.6
2017-Aug-23 00:56N 48°57' W 004°22'1124.5
2017-Aug-23 00:29N 49°05' W 004°10'1224.4
2017-Aug-23 00:00N 49°13' W 003°57'1324.9
2017-Aug-22 23:30N 49°22' W 003°44'1224.4
2017-Aug-22 23:00N 49°32' W 003°34'1223.7
2017-Aug-22 22:30N 49°41' W 003°21'1122.9
2017-Aug-22 22:01N 49°49' W 003°10'1122.3
2017-Aug-22 21:31N 49°58' W 002°58'1121.0
2017-Aug-22 21:01N 50°03' W 002°44'1420.7
2017-Aug-22 20:20N 50°08' W 002°23'620.1
2017-Aug-22 20:01N 50°10' W 002°14'1020.1
2017-Aug-22 19:30N 50°14' W 001°59'1120.5
2017-Aug-22 19:00N 50°19' W 001°45'1321.1
2017-Aug-22 18:23N 50°25' W 001°27'821.7
2017-Aug-22 18:01N 50°30' W 001°16'1020.8
2017-Aug-22 17:30N 50°36' W 001°04'714.3
2017-Aug-22 17:01N 50°43' W 001°01'612.5
2017-Aug-22 16:30N 50°49' W 001°07'0 0.8
2017-Aug-22 16:01N 50°49' W 001°06'0 0.0
2017-Aug-22 15:30N 50°49' W 001°06'0 0.0
2017-Aug-22 15:01N 50°49' W 001°06'0 0.0
2017-Aug-22 14:30N 50°49' W 001°06'0 0.0
2017-Aug-22 14:00N 50°49' W 001°06'0 0.0
2017-Aug-22 13:30N 50°49' W 001°06'0 0.2
2017-Aug-22 13:01N 50°49' W 001°06'4 7.1
2017-Aug-22 12:31N 50°45' W 001°05'816.4
2017-Aug-22 12:00N 50°37' W 001°06'1019.6
2017-Aug-22 11:30N 50°30' W 001°17'1020.4
2017-Aug-22 11:01N 50°23' W 001°28'1121.0
2017-Aug-22 10:29N 50°15' W 001°41'1021.7
2017-Aug-22 10:00N 50°08' W 001°53'1524.5
2017-Aug-22 09:23N 50°00' W 002°13'2324.7
2017-Aug-22 08:27N 49°52' W 002°47'1123.5
2017-Aug-22 07:59N 49°45' W 002°60'1224.2
2017-Aug-22 07:31N 49°37' W 003°12'1324.3
2017-Aug-22 06:59N 49°28' W 003°26'1224.2
2017-Aug-22 06:30N 49°20' W 003°39'1624.2
2017-Aug-22 05:51N 49°09' W 003°57'824.3
2017-Aug-22 05:31N 49°04' W 004°06'1324.2
2017-Aug-22 04:58N 48°55' W 004°21'1124.2
2017-Aug-22 04:31N 48°47' W 004°33'1224.8
2017-Aug-22 04:01N 48°39' W 004°47'1223.5
2017-Aug-22 03:30N 48°29' W 004°58'816.8
2017-Aug-22 03:01N 48°23' W 005°06'1325.1
2017-Aug-22 02:31N 48°11' W 005°10'1325.7
2017-Aug-22 02:01N 47°58' W 005°10'1224.9
2017-Aug-22 01:31N 47°46' W 005°06'1324.3
2017-Aug-22 00:59N 47°33' W 005°01'1224.3
2017-Aug-22 00:30N 47°22' W 004°57'1223.7
2017-Aug-21 23:59N 47°10' W 004°53'1223.9
2017-Aug-21 23:30N 46°58' W 004°50'1224.5
2017-Aug-21 23:01N 46°47' W 004°45'1224.0
2017-Aug-21 22:31N 46°35' W 004°42'1523.5
2017-Aug-21 21:53N 46°21' W 004°37'17715.6
2017-Aug-21 10:31N 43°28' W 003°47'11422.7
2017-Aug-21 05:29N 45°20' W 004°18'1123.7
2017-Aug-21 05:00N 45°30' W 004°22'3623.6
2017-Aug-21 03:28N 46°06' W 004°33'1723.3
2017-Aug-21 02:45N 46°22' W 004°38'623.9
2017-Aug-21 02:30N 46°28' W 004°40'1123.5
2017-Aug-21 02:01N 46°39' W 004°43'2323.6
2017-Aug-21 01:02N 47°02' W 004°50'223.3
2017-Aug-21 00:58N 47°04' W 004°50'2723.1
2017-Aug-20 23:47N 47°30' W 005°00'722.9
2017-Aug-20 23:28N 47°37' W 005°03'2022.9
2017-Aug-20 22:36N 47°56' W 005°12'1122.7
2017-Aug-20 22:07N 48°07' W 005°11'323.3
2017-Aug-20 21:59N 48°10' W 005°10'1223.3
2017-Aug-20 21:27N 48°22' W 005°07'716.0
2017-Aug-20 21:01N 48°28' W 004°60'1122.5
2017-Aug-20 20:31N 48°38' W 004°55'1224.4
2017-Aug-20 20:00N 48°50' W 004°50'7322.3
2017-Aug-20 16:43N 50°00' W 004°17'521.6
2017-Aug-20 16:30N 50°05' W 004°16'1121.8
2017-Aug-20 16:01N 50°15' W 004°12'6 1.9
2017-Aug-20 12:43N 50°22' W 004°09'1 4.6
2017-Aug-20 12:30N 50°21' W 004°09'917.8
2017-Aug-20 12:01N 50°12' W 004°10'1223.9
2017-Aug-20 11:31N 50°00' W 004°07'1223.5
2017-Aug-20 11:01N 49°48' W 004°05'4323.2
2017-Aug-20 09:10N 49°06' W 003°60'1823.3
2017-Aug-20 08:22N 48°47' W 003°57'4 2.3
2017-Aug-20 06:37N 48°43' W 003°58'0 0.0
2017-Aug-20 06:12N 48°43' W 003°58'0 0.0
2017-Aug-20 05:54N 48°43' W 003°58'0 0.1
2017-Aug-20 04:38N 48°43' W 003°58'1 7.7
2017-Aug-20 04:28N 48°44' W 003°57'714.8
2017-Aug-20 03:58N 48°51' W 004°02'1020.7
2017-Aug-20 03:29N 48°58' W 004°13'1020.6
2017-Aug-20 02:59N 49°05' W 004°25'1720.5
2017-Aug-20 02:09N 49°15' W 004°46'17819.9
2017-Aug-19 17:10N 51°29' W 007°50'320.7
2017-Aug-19 17:00N 51°31' W 007°54'1020.8
2017-Aug-19 16:30N 51°39' W 008°06'1019.3
2017-Aug-19 16:00N 51°47' W 008°15'5 9.2
2017-Aug-19 15:31N 51°51' W 008°18'1 2.3
2017-Aug-19 15:00N 51°50' W 008°19'0 0.0
2017-Aug-19 14:00N 51°50' W 008°19'0 0.0
2017-Aug-19 13:30N 51°50' W 008°19'0 0.0
2017-Aug-19 13:00N 51°50' W 008°19'0 0.0
2017-Aug-19 12:30N 51°50' W 008°19'0 0.0
2017-Aug-19 12:00N 51°50' W 008°19'0 0.0
2017-Aug-19 11:30N 51°50' W 008°19'0 0.0
2017-Aug-19 11:00N 51°50' W 008°19'0 0.0
2017-Aug-19 10:30N 51°50' W 008°19'0 0.0
2017-Aug-19 10:00N 51°50' W 008°19'0 0.0
2017-Aug-19 09:30N 51°50' W 008°19'0 0.6
2017-Aug-19 09:00N 51°50' W 008°20'2 4.6
2017-Aug-19 08:30N 51°50' W 008°16'713.9
2017-Aug-19 08:00N 51°43' W 008°13'1122.5
2017-Aug-19 07:30N 51°36' W 008°00'1122.4
2017-Aug-19 07:00N 51°28' W 007°47'9722.0
2017-Aug-19 02:36N 50°21' W 005°56'722.2
2017-Aug-19 02:18N 50°14' W 005°55'823.0
2017-Aug-19 01:56N 50°06' W 005°54'66 2.6
2017-Aug-18 00:48N 49°53' W 004°13'516.4
2017-Aug-18 00:29N 49°58' W 004°15'816.4
2017-Aug-18 00:00N 50°06' W 004°16'816.1
2017-Aug-17 23:30N 50°14' W 004°19'1 2.7
2017-Aug-17 23:00N 50°15' W 004°20'1 1.4
2017-Aug-17 22:12N 50°15' W 004°22'0 1.1
2017-Aug-17 21:48N 50°15' W 004°23'0 1.1
2017-Aug-17 21:24N 50°15' W 004°23'0 1.0
2017-Aug-17 21:00N 50°16' W 004°24'713.8
2017-Aug-17 20:28N 50°18' W 004°12'4 9.4
2017-Aug-17 20:00N 50°21' W 004°09'0 0.1
2017-Aug-17 14:56N 50°22' W 004°09'3 7.4
2017-Aug-17 14:30N 50°19' W 004°10'1121.2
2017-Aug-17 14:01N 50°08' W 004°15'1121.5
2017-Aug-17 13:31N 49°58' W 004°18'1121.5
2017-Aug-17 12:59N 49°47' W 004°22'5421.9
2017-Aug-17 10:30N 48°54' W 004°43'1223.6
2017-Aug-17 10:01N 48°43' W 004°47'1223.4
2017-Aug-17 09:31N 48°32' W 004°52'714.9
2017-Aug-17 09:01N 48°24' W 004°49'815.0
2017-Aug-17 08:31N 48°17' W 004°46'1223.1
2017-Aug-17 08:01N 48°06' W 004°46'816.3
2017-Aug-17 07:30N 47°58' W 004°43'1222.8
2017-Aug-17 07:00N 47°46' W 004°39'1422.6
2017-Aug-17 06:22N 47°32' W 004°36'922.7
2017-Aug-17 05:58N 47°24' W 004°34'1122.8
2017-Aug-17 05:31N 47°13' W 004°31'1223.2
2017-Aug-17 05:00N 47°01' W 004°28'1222.9
2017-Aug-17 04:30N 46°50' W 004°28'1422.9
2017-Aug-17 03:53N 46°36' W 004°25'34 1.5
2017-Aug-16 05:44N 47°04' W 004°54'2922.7
2017-Aug-16 04:29N 47°32' W 005°03'1122.9
2017-Aug-16 04:00N 47°42' W 005°07'1223.0
2017-Aug-16 03:28N 47°55' W 005°11'1423.1
2017-Aug-16 02:50N 48°09' W 005°12'823.3
2017-Aug-16 02:30N 48°16' W 005°10'1121.9
2017-Aug-16 02:01N 48°26' W 005°03'1019.1
2017-Aug-16 01:31N 48°33' W 004°52'1224.1
2017-Aug-16 01:01N 48°42' W 004°41'1223.5
2017-Aug-16 00:31N 48°51' W 004°29'2822.9
2017-Aug-15 23:17N 49°12' W 004°00'1122.6
2017-Aug-15 22:49N 49°20' W 003°50'1322.4
2017-Aug-15 22:15N 49°29' W 003°37'622.7
2017-Aug-15 22:00N 49°33' W 003°31'1123.0
2017-Aug-15 21:31N 49°42' W 003°20'1223.3
2017-Aug-15 21:01N 49°50' W 003°06'1223.9
2017-Aug-15 20:31N 49°58' W 002°53'1224.7
2017-Aug-15 20:01N 50°04' W 002°35'1325.0
2017-Aug-15 19:31N 50°10' W 002°18'1325.0
2017-Aug-15 19:01N 50°17' W 002°03'1224.8
2017-Aug-15 18:31N 50°25' W 001°47'1424.3
2017-Aug-15 17:56N 50°30' W 001°27'1124.7
2017-Aug-15 17:31N 50°34' W 001°12'1019.1
2017-Aug-15 17:00N 50°42' W 001°03'713.8
2017-Aug-15 16:31N 50°48' W 001°07'1 1.6
2017-Aug-15 16:00N 50°49' W 001°06'0 0.0
2017-Aug-15 15:30N 50°49' W 001°06'0 0.0
2017-Aug-15 15:00N 50°49' W 001°06'0 0.0
2017-Aug-15 14:31N 50°49' W 001°06'0 0.0
2017-Aug-15 14:00N 50°49' W 001°06'0 0.0
2017-Aug-15 13:30N 50°49' W 001°06'1 1.5
2017-Aug-15 13:00N 50°48' W 001°07'510.6
2017-Aug-15 12:30N 50°44' W 001°03'714.6
2017-Aug-15 12:01N 50°36' W 001°03'1724.8
2017-Aug-15 11:20N 50°26' W 001°23'1624.4
2017-Aug-15 10:40N 50°15' W 001°42'424.2
2017-Aug-15 10:31N 50°12' W 001°46'1223.9
2017-Aug-15 10:01N 50°05' W 002°01'3523.0
2017-Aug-15 08:29N 49°49' W 002°49'1822.8
2017-Aug-15 07:42N 49°37' W 003°10'423.1
2017-Aug-15 07:30N 49°34' W 003°15'1223.1
2017-Aug-15 06:59N 49°26' W 003°29'1623.2
2017-Aug-15 06:17N 49°15' W 003°47'623.1
2017-Aug-15 06:00N 49°11' W 003°54'2123.1
2017-Aug-15 05:07N 48°57' W 004°17'1022.9
2017-Aug-15 04:40N 48°50' W 004°29'622.8
2017-Aug-15 04:26N 48°46' W 004°35'1022.6
2017-Aug-15 04:01N 48°39' W 004°45'1122.4
2017-Aug-15 03:31N 48°31' W 004°56'917.4
2017-Aug-15 03:01N 48°24' W 005°05'1122.7
2017-Aug-15 02:31N 48°13' W 005°09'1122.8
2017-Aug-15 02:01N 48°02' W 005°10'1122.5
2017-Aug-15 01:30N 47°51' W 005°06'1122.9
2017-Aug-15 01:00N 47°40' W 005°03'1123.0
2017-Aug-15 00:30N 47°28' W 004°59'1122.6
2017-Aug-15 00:00N 47°17' W 004°56'1222.8
2017-Aug-14 23:28N 47°05' W 004°53'1122.7
2017-Aug-14 23:00N 46°55' W 004°50'1122.8
2017-Aug-14 22:31N 46°44' W 004°47'1523.1
2017-Aug-14 21:52N 46°29' W 004°43'34 1.6
2017-Aug-14 00:39N 47°02' W 004°53'424.1
2017-Aug-14 00:29N 47°06' W 004°54'3224.3
2017-Aug-13 23:11N 47°37' W 005°02'424.4
2017-Aug-13 23:00N 47°41' W 005°04'1225.0
2017-Aug-13 22:30N 47°54' W 005°07'1224.7
2017-Aug-13 22:01N 48°06' W 005°10'1223.8
2017-Aug-13 21:30N 48°18' W 005°08'1020.0
2017-Aug-13 21:00N 48°27' W 005°01'1020.1
2017-Aug-13 20:30N 48°36' W 004°55'1122.5
2017-Aug-13 20:01N 48°47' W 004°50'1122.3
2017-Aug-13 19:30N 48°57' W 004°46'1422.5
2017-Aug-13 18:54N 49°11' W 004°40'1022.9
2017-Aug-13 18:27N 49°21' W 004°36'1123.2
2017-Aug-13 17:58N 49°31' W 004°32'1923.4
2017-Aug-13 17:10N 49°49' W 004°24'1223.5
2017-Aug-13 16:40N 50°01' W 004°18'423.5
2017-Aug-13 16:29N 50°04' W 004°16'1123.4
2017-Aug-13 16:00N 50°15' W 004°11'6 1.9
2017-Aug-13 12:37N 50°22' W 004°09'0 2.3
2017-Aug-13 12:31N 50°22' W 004°09'713.1
2017-Aug-13 12:01N 50°15' W 004°09'1223.4
2017-Aug-13 11:30N 50°04' W 004°06'1223.4
2017-Aug-13 11:01N 49°52' W 004°03'1223.5
2017-Aug-13 10:30N 49°40' W 003°59'1122.2
2017-Aug-13 10:00N 49°29' W 004°02'1523.1
2017-Aug-13 09:20N 49°14' W 004°03'  
Track history (hours):
 
Tides and Currents Weather Stations Pressure Air Temp Water Temp Dewpoint Dewpoint Depression Visibility Wind Speed Wind Dir Waves Ship Positions

Pont Aven

Last reported at 2017-Aug-23 08:54 UTC. Time now 2017-Aug-23 13:39 UTC.
Position N 46°08' W 004°34'.

Length 185 m; beam 31 m.

Type: Passenger vessel. MMSI: 228183600.

Date/timePositionNaut miles runAvg speedWind from/ knotsBaromVisibWave heightAir tempDewpointWater temp
2017-Aug-23 08:54N 46°08' W 004°34'1624.4
2017-Aug-23 08:14N 46°24' W 004°40'1223.6
2017-Aug-23 07:44N 46°35' W 004°44'623.9
2017-Aug-23 07:29N 46°41' W 004°45'2024.5
2017-Aug-23 06:40N 47°01' W 004°50'424.6
2017-Aug-23 06:31N 47°05' W 004°52'2524.6
2017-Aug-23 05:31N 47°29' W 004°58'024.1
2017-Aug-23 05:30N 47°29' W 004°58'1224.1
2017-Aug-23 05:00N 47°41' W 005°03'1223.6
2017-Aug-23 04:29N 47°53' W 005°07'1322.4
2017-Aug-23 03:54N 48°06' W 005°10'921.6
2017-Aug-23 03:29N 48°15' W 005°10'1021.0
2017-Aug-23 03:00N 48°24' W 005°05'816.4
2017-Aug-23 02:30N 48°30' W 004°57'1121.3
2017-Aug-23 02:00N 48°39' W 004°47'1122.4
2017-Aug-23 01:31N 48°47' W 004°36'1323.6
2017-Aug-23 00:56N 48°57' W 004°22'1124.5
2017-Aug-23 00:29N 49°05' W 004°10'1224.4
2017-Aug-23 00:00N 49°13' W 003°57'1324.9
2017-Aug-22 23:30N 49°22' W 003°44'1224.4
2017-Aug-22 23:00N 49°32' W 003°34'1223.7
2017-Aug-22 22:30N 49°41' W 003°21'1122.9
2017-Aug-22 22:01N 49°49' W 003°10'1122.3
2017-Aug-22 21:31N 49°58' W 002°58'1121.0
2017-Aug-22 21:01N 50°03' W 002°44'1420.7
2017-Aug-22 20:20N 50°08' W 002°23'620.1
2017-Aug-22 20:01N 50°10' W 002°14'1020.1
2017-Aug-22 19:30N 50°14' W 001°59'1120.5
2017-Aug-22 19:00N 50°19' W 001°45'1321.1
2017-Aug-22 18:23N 50°25' W 001°27'821.7
2017-Aug-22 18:01N 50°30' W 001°16'1020.8
2017-Aug-22 17:30N 50°36' W 001°04'714.3
2017-Aug-22 17:01N 50°43' W 001°01'612.5
2017-Aug-22 16:30N 50°49' W 001°07'0 0.8
2017-Aug-22 16:01N 50°49' W 001°06'0 0.0
2017-Aug-22 15:30N 50°49' W 001°06'0 0.0
2017-Aug-22 15:01N 50°49' W 001°06'0 0.0
2017-Aug-22 14:30N 50°49' W 001°06'0 0.0
2017-Aug-22 14:00N 50°49' W 001°06'0 0.0
2017-Aug-22 13:30N 50°49' W 001°06'0 0.2
2017-Aug-22 13:01N 50°49' W 001°06'4 7.1
2017-Aug-22 12:31N 50°45' W 001°05'816.4
2017-Aug-22 12:00N 50°37' W 001°06'1019.6
2017-Aug-22 11:30N 50°30' W 001°17'1020.4
2017-Aug-22 11:01N 50°23' W 001°28'1121.0
2017-Aug-22 10:29N 50°15' W 001°41'1021.7
2017-Aug-22 10:00N 50°08' W 001°53'1524.5
2017-Aug-22 09:23N 50°00' W 002°13'2324.7
2017-Aug-22 08:27N 49°52' W 002°47'1123.5
2017-Aug-22 07:59N 49°45' W 002°60'1224.2
2017-Aug-22 07:31N 49°37' W 003°12'1324.3
2017-Aug-22 06:59N 49°28' W 003°26'1224.2
2017-Aug-22 06:30N 49°20' W 003°39'1624.2
2017-Aug-22 05:51N 49°09' W 003°57'824.3
2017-Aug-22 05:31N 49°04' W 004°06'1324.2
2017-Aug-22 04:58N 48°55' W 004°21'1124.2
2017-Aug-22 04:31N 48°47' W 004°33'1224.8
2017-Aug-22 04:01N 48°39' W 004°47'1223.5
2017-Aug-22 03:30N 48°29' W 004°58'816.8
2017-Aug-22 03:01N 48°23' W 005°06'1325.1
2017-Aug-22 02:31N 48°11' W 005°10'1325.7
2017-Aug-22 02:01N 47°58' W 005°10'1224.9
2017-Aug-22 01:31N 47°46' W 005°06'1324.3
2017-Aug-22 00:59N 47°33' W 005°01'1224.3
2017-Aug-22 00:30N 47°22' W 004°57'1223.7
2017-Aug-21 23:59N 47°10' W 004°53'1223.9
2017-Aug-21 23:30N 46°58' W 004°50'1224.5
2017-Aug-21 23:01N 46°47' W 004°45'1224.0
2017-Aug-21 22:31N 46°35' W 004°42'1523.5
2017-Aug-21 21:53N 46°21' W 004°37'17715.6
2017-Aug-21 10:31N 43°28' W 003°47'11422.7
2017-Aug-21 05:29N 45°20' W 004°18'1123.7
2017-Aug-21 05:00N 45°30' W 004°22'3623.6
2017-Aug-21 03:28N 46°06' W 004°33'1723.3
2017-Aug-21 02:45N 46°22' W 004°38'623.9
2017-Aug-21 02:30N 46°28' W 004°40'1123.5
2017-Aug-21 02:01N 46°39' W 004°43'2323.6
2017-Aug-21 01:02N 47°02' W 004°50'223.3
2017-Aug-21 00:58N 47°04' W 004°50'2723.1
2017-Aug-20 23:47N 47°30' W 005°00'722.9
2017-Aug-20 23:28N 47°37' W 005°03'2022.9
2017-Aug-20 22:36N 47°56' W 005°12'1122.7
2017-Aug-20 22:07N 48°07' W 005°11'323.3
2017-Aug-20 21:59N 48°10' W 005°10'1223.3
2017-Aug-20 21:27N 48°22' W 005°07'716.0
2017-Aug-20 21:01N 48°28' W 004°60'1122.5
2017-Aug-20 20:31N 48°38' W 004°55'1224.4
2017-Aug-20 20:00N 48°50' W 004°50'7322.3
2017-Aug-20 16:43N 50°00' W 004°17'521.6
2017-Aug-20 16:30N 50°05' W 004°16'1121.8
2017-Aug-20 16:01N 50°15' W 004°12'6 1.9
2017-Aug-20 12:43N 50°22' W 004°09'1 4.6
2017-Aug-20 12:30N 50°21' W 004°09'917.8
2017-Aug-20 12:01N 50°12' W 004°10'1223.9
2017-Aug-20 11:31N 50°00' W 004°07'1223.5
2017-Aug-20 11:01N 49°48' W 004°05'4323.2
2017-Aug-20 09:10N 49°06' W 003°60'1823.3
2017-Aug-20 08:22N 48°47' W 003°57'4 2.3
2017-Aug-20 06:37N 48°43' W 003°58'0 0.0
2017-Aug-20 06:12N 48°43' W 003°58'0 0.0
2017-Aug-20 05:54N 48°43' W 003°58'0 0.1
2017-Aug-20 04:38N 48°43' W 003°58'1 7.7
2017-Aug-20 04:28N 48°44' W 003°57'714.8
2017-Aug-20 03:58N 48°51' W 004°02'1020.7
2017-Aug-20 03:29N 48°58' W 004°13'1020.6
2017-Aug-20 02:59N 49°05' W 004°25'1720.5
2017-Aug-20 02:09N 49°15' W 004°46'17819.9
2017-Aug-19 17:10N 51°29' W 007°50'320.7
2017-Aug-19 17:00N 51°31' W 007°54'1020.8
2017-Aug-19 16:30N 51°39' W 008°06'1019.3
2017-Aug-19 16:00N 51°47' W 008°15'5 9.2
2017-Aug-19 15:31N 51°51' W 008°18'1 2.3
2017-Aug-19 15:00N 51°50' W 008°19'0 0.0
2017-Aug-19 14:00N 51°50' W 008°19'0 0.0
2017-Aug-19 13:30N 51°50' W 008°19'0 0.0
2017-Aug-19 13:00N 51°50' W 008°19'0 0.0
2017-Aug-19 12:30N 51°50' W 008°19'0 0.0
2017-Aug-19 12:00N 51°50' W 008°19'0 0.0
2017-Aug-19 11:30N 51°50' W 008°19'0 0.0
2017-Aug-19 11:00N 51°50' W 008°19'0 0.0
2017-Aug-19 10:30N 51°50' W 008°19'0 0.0
2017-Aug-19 10:00N 51°50' W 008°19'0 0.0
2017-Aug-19 09:30N 51°50' W 008°19'0 0.6
2017-Aug-19 09:00N 51°50' W 008°20'2 4.6
2017-Aug-19 08:30N 51°50' W 008°16'713.9
2017-Aug-19 08:00N 51°43' W 008°13'1122.5
2017-Aug-19 07:30N 51°36' W 008°00'1122.4
2017-Aug-19 07:00N 51°28' W 007°47'9722.0
2017-Aug-19 02:36N 50°21' W 005°56'722.2
2017-Aug-19 02:18N 50°14' W 005°55'823.0
2017-Aug-19 01:56N 50°06' W 005°54'66 2.6
2017-Aug-18 00:48N 49°53' W 004°13'516.4
2017-Aug-18 00:29N 49°58' W 004°15'816.4
2017-Aug-18 00:00N 50°06' W 004°16'816.1
2017-Aug-17 23:30N 50°14' W 004°19'1 2.7
2017-Aug-17 23:00N 50°15' W 004°20'1 1.4
2017-Aug-17 22:12N 50°15' W 004°22'0 1.1
2017-Aug-17 21:48N 50°15' W 004°23'0 1.1
2017-Aug-17 21:24N 50°15' W 004°23'0 1.0
2017-Aug-17 21:00N 50°16' W 004°24'713.8
2017-Aug-17 20:28N 50°18' W 004°12'4 9.4
2017-Aug-17 20:00N 50°21' W 004°09'0 0.1
2017-Aug-17 14:56N 50°22' W 004°09'3 7.4
2017-Aug-17 14:30N 50°19' W 004°10'1121.2
2017-Aug-17 14:01N 50°08' W 004°15'1121.5
2017-Aug-17 13:31N 49°58' W 004°18'1121.5
2017-Aug-17 12:59N 49°47' W 004°22'5421.9
2017-Aug-17 10:30N 48°54' W 004°43'1223.6
2017-Aug-17 10:01N 48°43' W 004°47'1223.4
2017-Aug-17 09:31N 48°32' W 004°52'714.9
2017-Aug-17 09:01N 48°24' W 004°49'815.0
2017-Aug-17 08:31N 48°17' W 004°46'1223.1
2017-Aug-17 08:01N 48°06' W 004°46'816.3
2017-Aug-17 07:30N 47°58' W 004°43'1222.8
2017-Aug-17 07:00N 47°46' W 004°39'1422.6
2017-Aug-17 06:22N 47°32' W 004°36'922.7
2017-Aug-17 05:58N 47°24' W 004°34'1122.8
2017-Aug-17 05:31N 47°13' W 004°31'1223.2
2017-Aug-17 05:00N 47°01' W 004°28'1222.9
2017-Aug-17 04:30N 46°50' W 004°28'1422.9
2017-Aug-17 03:53N 46°36' W 004°25'34 1.5
2017-Aug-16 05:44N 47°04' W 004°54'2922.7
2017-Aug-16 04:29N 47°32' W 005°03'1122.9
2017-Aug-16 04:00N 47°42' W 005°07'1223.0
2017-Aug-16 03:28N 47°55' W 005°11'1423.1
2017-Aug-16 02:50N 48°09' W 005°12'823.3
2017-Aug-16 02:30N 48°16' W 005°10'1121.9
2017-Aug-16 02:01N 48°26' W 005°03'1019.1
2017-Aug-16 01:31N 48°33' W 004°52'1224.1
2017-Aug-16 01:01N 48°42' W 004°41'1223.5
2017-Aug-16 00:31N 48°51' W 004°29'2822.9
2017-Aug-15 23:17N 49°12' W 004°00'1122.6
2017-Aug-15 22:49N 49°20' W 003°50'1322.4
2017-Aug-15 22:15N 49°29' W 003°37'622.7
2017-Aug-15 22:00N 49°33' W 003°31'1123.0
2017-Aug-15 21:31N 49°42' W 003°20'1223.3
2017-Aug-15 21:01N 49°50' W 003°06'1223.9
2017-Aug-15 20:31N 49°58' W 002°53'1224.7
2017-Aug-15 20:01N 50°04' W 002°35'1325.0
2017-Aug-15 19:31N 50°10' W 002°18'1325.0
2017-Aug-15 19:01N 50°17' W 002°03'1224.8
2017-Aug-15 18:31N 50°25' W 001°47'1424.3
2017-Aug-15 17:56N 50°30' W 001°27'1124.7
2017-Aug-15 17:31N 50°34' W 001°12'1019.1
2017-Aug-15 17:00N 50°42' W 001°03'713.8
2017-Aug-15 16:31N 50°48' W 001°07'1 1.6
2017-Aug-15 16:00N 50°49' W 001°06'0 0.0
2017-Aug-15 15:30N 50°49' W 001°06'0 0.0
2017-Aug-15 15:00N 50°49' W 001°06'0 0.0
2017-Aug-15 14:31N 50°49' W 001°06'0 0.0
2017-Aug-15 14:00N 50°49' W 001°06'0 0.0
2017-Aug-15 13:30N 50°49' W 001°06'1 1.5
2017-Aug-15 13:00N 50°48' W 001°07'510.6
2017-Aug-15 12:30N 50°44' W 001°03'714.6
2017-Aug-15 12:01N 50°36' W 001°03'1724.8
2017-Aug-15 11:20N 50°26' W 001°23'1624.4
2017-Aug-15 10:40N 50°15' W 001°42'424.2
2017-Aug-15 10:31N 50°12' W 001°46'1223.9
2017-Aug-15 10:01N 50°05' W 002°01'3523.0
2017-Aug-15 08:29N 49°49' W 002°49'1822.8
2017-Aug-15 07:42N 49°37' W 003°10'423.1
2017-Aug-15 07:30N 49°34' W 003°15'1223.1
2017-Aug-15 06:59N 49°26' W 003°29'1623.2
2017-Aug-15 06:17N 49°15' W 003°47'623.1
2017-Aug-15 06:00N 49°11' W 003°54'2123.1
2017-Aug-15 05:07N 48°57' W 004°17'1022.9
2017-Aug-15 04:40N 48°50' W 004°29'622.8
2017-Aug-15 04:26N 48°46' W 004°35'1022.6
2017-Aug-15 04:01N 48°39' W 004°45'1122.4
2017-Aug-15 03:31N 48°31' W 004°56'917.4
2017-Aug-15 03:01N 48°24' W 005°05'1122.7
2017-Aug-15 02:31N 48°13' W 005°09'1122.8
2017-Aug-15 02:01N 48°02' W 005°10'1122.5
2017-Aug-15 01:30N 47°51' W 005°06'1122.9
2017-Aug-15 01:00N 47°40' W 005°03'1123.0
2017-Aug-15 00:30N 47°28' W 004°59'1122.6
2017-Aug-15 00:00N 47°17' W 004°56'1222.8
2017-Aug-14 23:28N 47°05' W 004°53'1122.7
2017-Aug-14 23:00N 46°55' W 004°50'1122.8
2017-Aug-14 22:31N 46°44' W 004°47'1523.1
2017-Aug-14 21:52N 46°29' W 004°43'34 1.6
2017-Aug-14 00:39N 47°02' W 004°53'424.1
2017-Aug-14 00:29N 47°06' W 004°54'3224.3
2017-Aug-13 23:11N 47°37' W 005°02'424.4
2017-Aug-13 23:00N 47°41' W 005°04'1225.0
2017-Aug-13 22:30N 47°54' W 005°07'1224.7
2017-Aug-13 22:01N 48°06' W 005°10'1223.8
2017-Aug-13 21:30N 48°18' W 005°08'1020.0
2017-Aug-13 21:00N 48°27' W 005°01'1020.1
2017-Aug-13 20:30N 48°36' W 004°55'1122.5
2017-Aug-13 20:01N 48°47' W 004°50'1122.3
2017-Aug-13 19:30N 48°57' W 004°46'1422.5
2017-Aug-13 18:54N 49°11' W 004°40'1022.9
2017-Aug-13 18:27N 49°21' W 004°36'1123.2
2017-Aug-13 17:58N 49°31' W 004°32'1923.4
2017-Aug-13 17:10N 49°49' W 004°24'1223.5
2017-Aug-13 16:40N 50°01' W 004°18'423.5
2017-Aug-13 16:29N 50°04' W 004°16'1123.4
2017-Aug-13 16:00N 50°15' W 004°11'6 1.9
2017-Aug-13 12:37N 50°22' W 004°09'0 2.3
2017-Aug-13 12:31N 50°22' W 004°09'713.1
2017-Aug-13 12:01N 50°15' W 004°09'1223.4
2017-Aug-13 11:30N 50°04' W 004°06'1223.4
2017-Aug-13 11:01N 49°52' W 004°03'1223.5
2017-Aug-13 10:30N 49°40' W 003°59'1122.2
2017-Aug-13 10:00N 49°29' W 004°02'1523.1
2017-Aug-13 09:20N 49°14' W 004°03'  

Dump ship's entire track history